Location: Unspecified
(41.4398°S, 0.0000°E)
Time: 00:29:36
(UTC+00:00)

Hubble Space Telescope - Visible Passes

Search period start: 04 April 2026 00:00
Search period end: 14 April 2026 00:00
Orbit: 475 x 478 km, 28.5° (Epoch: 28 March)

Date Brightness Start Highest point End Pass type
(mag) Time Alt. Az. Time Alt. Az. Time Alt. Az.
4 Apr 3.3 19:49:39 10° NNW 19:49:40 10° NNW 19:49:40 10° NNW visible
5 Apr 3.0 19:18:38 10° NNW 19:19:59 12° N 19:20:22 11° N visible
6 Apr 3.0 18:47:36 10° NNW 18:48:58 12° N 18:50:20 10° NNE visible
7 Apr 3.1 18:16:33 10° NNW 18:17:55 12° N 18:19:17 10° NNE visible
